Weather History for Burnet, TX

Change the Weather History Date:

Thursday, September 12, 2013

  Actual Average Record
Temperature  
Mean Temperature 82 °F -  
Max Temperature 93 °F 87 °F 102 °F (2011)
Min Temperature 70 °F 67 °F 62 °F (2014)
Cooling Degree Days 16    
Growing Degree Days 32 (Base 50)    
Moisture  
Dew Point 63 °F    
Average Humidity 59    
Maximum Humidity 87    
Minimum Humidity 30    
Precipitation  
Precipitation 0.00 in - - ()
Sea Level Pressure  
Sea Level Pressure 30.02 in    
Wind  
Wind Speed 3 mph (ESE)    
Max Wind Speed 8 mph    
Max Gust Speed 16 mph    
Visibility 10 miles    
Events      
Averages and records for this station are not official NWS values.
T = Trace of Precipitation, MM = Missing Value Source: NWS Daily Summary

Daily Weather History Graph

Daily Weather History Graph

Search for Another Location

Airport:

Trip Planner

Search our weather history database for the weather conditions in past years. The results will help you decide how hot, cold, wet, or windy it might be!

Date:

Astronomy

Sep. 12, 2013 Rise Set
Actual Time 7:15 AM CDT 7:41 PM CDT
Civil Twilight 6:51 AM CDT 8:06 PM CDT
Nautical Twilight 6:23 AM CDT 8:34 PM CDT
Astronomical Twilight 5:54 AM CDT 9:03 PM CDT
Moon 2:18 PM CDT (9/12) 12:06 AM CDT (9/12)
Length of Visible Light 13h 14m
Length of Day
12h 26m
Waxing Crescent, 50% of the Moon is Illuminated
Sep 12
Waxing Crescent
Sep 12
First Quarter
Sep 19
Full
Sep 26
Last Quarter
Oct 4
New

Hourly Weather History & Observations

Time (CDT) Temp. Heat Index Dew Point Humidity Pressure Visibility Wind Dir Wind Speed Gust Speed Precip Events Conditions
12:53 AM 78.1 °F - 66.0 °F 66% 30.04 in 10.0 mi South 4.6 mph - N/A   Clear
1:53 AM 75.9 °F - 66.0 °F 71% 30.04 in 10.0 mi South 3.5 mph - N/A   Clear
2:53 AM 75.0 °F - 66.0 °F 73% 30.03 in 10.0 mi Calm Calm - N/A   Clear
3:53 AM 73.9 °F - 66.9 °F 79% 30.03 in 10.0 mi Calm Calm - N/A   Clear
4:53 AM 73.0 °F - 66.0 °F 79% 30.02 in 10.0 mi Calm Calm - N/A   Clear
5:53 AM 71.1 °F - 66.0 °F 84% 30.03 in 10.0 mi NNE 3.5 mph - N/A   Clear
6:53 AM 70.0 °F - 66.0 °F 87% 30.04 in 10.0 mi Calm Calm - N/A   Clear
7:53 AM 71.1 °F - 66.9 °F 87% 30.06 in 8.0 mi Calm Calm - N/A   Scattered Clouds
8:02 AM 72.0 °F - 66.9 °F 84% 30.11 in 8.0 mi Calm Calm - N/A   Mostly Cloudy
8:27 AM 73.9 °F - 68.0 °F 82% 30.12 in 9.0 mi Calm Calm - N/A   Scattered Clouds
8:53 AM 75.0 °F - 70.0 °F 84% 30.07 in 8.0 mi SE 3.5 mph - N/A   Partly Cloudy
9:53 AM 78.1 °F - 68.0 °F 71% 30.07 in 10.0 mi Calm Calm - N/A   Clear
10:53 AM 82.9 °F 84.6 °F 64.9 °F 54% 30.08 in 10.0 mi Calm Calm - N/A   Clear
11:53 AM 84.9 °F 86.1 °F 64.0 °F 49% 30.07 in 10.0 mi Variable 6.9 mph - N/A   Scattered Clouds
12:53 PM 86.0 °F 86.3 °F 62.1 °F 44% 30.05 in 10.0 mi East 5.8 mph - N/A   Scattered Clouds
1:53 PM 90.0 °F 89.1 °F 59.0 °F 35% 30.02 in 10.0 mi South 8.1 mph 16.1 mph N/A   Partly Cloudy
2:53 PM 93.0 °F 91.7 °F 57.0 °F 30% 29.99 in 10.0 mi Variable 5.8 mph - N/A   Scattered Clouds
3:53 PM 91.9 °F 90.8 °F 57.9 °F 32% 29.96 in 10.0 mi Variable 6.9 mph - N/A   Scattered Clouds
4:53 PM 93.0 °F 92.0 °F 57.9 °F 31% 29.94 in 10.0 mi Variable 6.9 mph - N/A   Partly Cloudy
5:53 PM 91.9 °F 90.6 °F 57.0 °F 31% 29.92 in 10.0 mi ESE 4.6 mph - N/A   Partly Cloudy
6:53 PM 91.0 °F 90.2 °F 59.0 °F 34% 29.92 in 10.0 mi East 5.8 mph - N/A   Clear
7:53 PM 87.1 °F 86.7 °F 60.1 °F 40% 29.94 in 10.0 mi East 4.6 mph - N/A   Clear
8:53 PM 82.9 °F 83.3 °F 61.0 °F 47% 29.95 in 10.0 mi East 3.5 mph - N/A   Clear
9:53 PM 82.9 °F 83.3 °F 61.0 °F 47% 29.97 in 10.0 mi Calm Calm - N/A   Clear
10:53 PM 81.0 °F 82.2 °F 63.0 °F 54% 29.97 in 10.0 mi Calm Calm - N/A   Overcast
11:53 PM 80.1 °F 81.5 °F 63.0 °F 56% 29.97 in 10.0 mi Calm Calm - N/A   Partly Cloudy